www.pogodaiklimat.ru

Погода и климат >> Архив погоды >> Аргентина >> Сан-Рафаэль


ПОГОДА в Сан-Рафаэле

  • Прогноз погоды в Сан-Рафаэле
  • Монитор погоды в Сан-Рафаэле

АРХИВ ПОГОДЫ в Сан-Рафаэле

Время (UTC), дата Ветер
(напр.,м/с)
 
Видим.   Явления Облачность Т
(С)
Тd
(С)
f
(%)
Тe
(С)
Тes
(С)
Комфортность P
(гПа)
Po
(гПа)
Тmin
(С)
Tmax
(С)
R
(мм)
R24
(мм)
S
(см)
03 15.09 ЮЗ 3 20 км ясно +11.0 +0.1 47 +10 +10 1006.5 922.0
06 15.09 З 2 20 км ясно +8.8 -1.9 47 +8 +8 1005.9 921.7
09 15.09 ЮЗ 3 20 км 3/0
[Ac As]
+7.8 -4.1 43 +6 +6 1005.9 921.6
12 15.09 В 2 20 км 9/0
[Cs]
+11.8 -3.9 33 +11 +13 1007.4 922.3 +5.7 +15.6
15 15.09 С 5 20 км 3/0
[Cs]
+18.5 -2.4 24 +18 +25 1007.9 923.0
18 15.09 В 3 20 км 1/0
[Cs]
+23.2 -2.4 18 +22 +32 комфорт 1005.6 921.4
21 15.09 ЮВ 8 2000 м пыльная буря 1/1 1200 м
[Cu hum]
+22.3 -2.8 18 +21 +21 комфорт 1007.5 922.8
00 16.09 ЮВ 8 6000 м пыльный позёмок 3/3 1200 м
[Cu hum]
+12.3 -1.2 39 +10 +10 1016.3 930.0 +11.8 +24.7
03 16.09 ЮВ 8 15 км слаб. дождь 6/6 750 м
[St]
+8.8 -1.9 47 +5 +5 1021.2 935.0
06 16.09 ЮВ 6 20 км {дождь} 9/9 600 м
[St]
+7.2 -2.9 49 +3 +3 1023.9 937.8 0.0
09 16.09 В 3 20 км 5/5 750 м
[St]
+7.0 -4.7 43 +5 +5 1025.3 939.0
12 16.09 В 2 20 км 6/1 1050 м
[Sc Ac As]
+6.8 -8.6 32 +6 +7 1028.9 940.8 +6.8 +12.3 0.0
15 16.09 С 6 20 км ясно +10.6 -8.7 25 +8 +14 1028.3 940.2
18 16.09 С 5 20 км ясно +15.2 -5.2 24 +14 +21 1024.0 936.8
21 16.09 С 7 20 км ясно +18.2 -4.8 20 +18 +18 1020.7 934.2
00 17.09 С 7 20 км ясно +13.1 -4.3 30 +11 +11 1021.5 934.2 +6.8 +26.0
03 17.09 З 4 20 км ясно +8.0 -2.7 47 +5 +5 1021.9 934.4
06 17.09 З 4 20 км ясно +8.6 -4.0 41 +6 +6 1019.6 933.0
09 17.09 З 3 20 км ясно +6.9 -4.1 45 +5 +5 1017.0 930.8
12 17.09 ЮЗ 2 20 км ясно +10.6 -4.9 33 +10 +12 1017.0 930.6 +1.8 +13.1
15 17.09 СВ 3 20 км ясно +18.2 -3.0 23 +19 +30 1015.3 929.4
18 17.09 СВ 2 20 км ясно +21.8 -5.5 16 +21 +33 комфорт 1011.7 926.6
21 17.09 С 5 20 км ясно +23.6 -8.0 12 +21 +23 комфорт 1009.0 924.2
00 18.09 С 3 20 км ясно +15.2 +0.2 36 +15 +15 1012.2 926.5 +10.6 +23.6
03 18.09 Ю 2 20 км ясно +14.0 -1.1 35 +14 +14 1014.7 929.7
06 18.09 Ю 2 20 км ясно +9.0 -1.6 47 +8 +8 1015.5 930.2
09 18.09 З 4 20 км ясно +5.8 -5.0 46 +3 +3 1014.3 929.0
12 18.09 З 3 20 км ясно +9.8 -3.1 40 +8 +10 1013.5 927.6 +5.1 +16.6
15 18.09 С 3 20 км ясно +19.0 -2.2 24 +19 +30 1009.0 924.6
18 18.09 С 7 20 км ясно +24.8 -5.4 13 +23 +26 комфорт 1002.3 918.6
21 18.09 С 7 20 км ясно +25.8 -5.1 13 +23 +24 комфорт 998.5 914.8
00 19.09 С 3 20 км ясно +18.4 -5.3 19 +19 +19 999.1 914.9 +9.8 +26.2
03 19.09 Ю 3 20 км ясно +13.8 -1.5 35 +13 +13 999.7 916.1
06 19.09 ЮВ 4 20 км ясно +11.8 -8.0 24 +10 +10 1003.8 920.2
09 19.09 Ю 4 20 км ясно +10.6 -6.7 29 +9 +9 1004.8 921.2
12 19.09 С 7 15 км пыльный позёмок ясно +7.4 -7.4 34 +4 +4 1015.1 929.2 +2.8 +18.4
15 19.09 В 5 15 км пыльный позёмок 6/0
[Cs]
+10.8 -13.0 17 +9 +14 1016.7 930.5
18 19.09 штиль 0 20 км 5/0
[Cs]
+15.0 -13.4 13 +15 +31 опасность
простуды
1014.3 928.6
21 19.09 В 4 20 км 3/0
[Ac As Cs]
+14.5 -13.6 13 +14 +15 1014.8 928.8
00 20.09 штиль 0 20 км 3/0
[Ac As]
+10.2 -7.5 28 +10 +10 1019.1 931.7 +7.4 +15.0
03 20.09 З 2 20 км ясно +6.4 -12.9 24 +5 +5 1021.6 933.8
06 20.09 ЮЗ 3 20 км ясно +2.8 -13.6 29 0 0 1021.6 934.0
09 20.09 ЮЗ 3 20 км ясно +1.6 -13.7 31 -1 -1 1022.0 934.1
12 20.09 штиль 0 20 км ясно +5.8 -11.8 27 +6 +9 1024.0 935.8 +1.5 +10.2
15 20.09 штиль 0 20 км ясно +15.2 -12.0 14 +15 +33 опасность
простуды
1021.9 934.8
18 20.09 СВ 4 20 км ясно +19.0 -13.4 10 +19 +27 1018.7 931.8
21 20.09 С 6 20 км ясно +20.8 -18.5 6 +19 +20 1016.8 930.2
00 21.09 СЗ 6 20 км ясно +14.0 -10.3 18 +12 +12 1019.2 932.1 +5.8 +21.6
03 21.09 СЗ 4 20 км ясно +10.8 -10.4 21 +9 +9 1020.0 933.0
06 21.09 штиль 0 20 км ясно +5.8 -9.5 32 +6 +6 1019.8 933.3
09 21.09 З 4 20 км ясно +2.0 -11.1 37 -2 -2 1019.6 932.9
12 21.09 штиль 0 20 км ясно +8.5 -9.1 28 +9 +12 1021.9 934.9 +1.2 +14.7
15 21.09 ЮВ 5 20 км ясно +17.1 -8.7 16 +17 +24 1021.3 935.2
18 21.09 В 4 20 км ясно +20.5 -8.1 14 +20 +29 1020.2 933.9
21 21.09 штиль 0 15 км пыль ясно +20.4 -8.5 13 +19 +23 1019.9 933.0

 

Местоположение метеостанции Сан-Рафаэль (Аргентина): широта -34.58 долгота -68.40 высота над уровнем моря 748 м.

В архиве по умолчанию представлена погода в Сан-Рафаэле за последнюю неделю. Архивные данные за месяц целиком и за предыдущие месяцы, начиная с января 2011 года, Вы можете получить, выбрав интересующий диапазон дат из раскрывающегося списка и нажав кнопку "Ввод!".


*Определитесь, кто Вы:
робот инопланетянин человек

Внимание! Время в таблицах - всемирное. Для получения местного времени необходимо прибавить поправку, которая равна -3 ч.

Смотрите также архив погоды в соседних городах и на ближайших метеорологических станциях:

Погода в Маларгуэ (Аргентина) (148 км)
Погода в Сан-Мартине (Аргентина) (167 км)
Погода в Мендосе (Аргентина) (198 км)
Погода в Сан-Хосе-де-Майпо (Чили) (209 км)
Погода в Сантьяго Агуас Андинас (Чили) (229 км)
Погода в Сан-Луисе (Аргентина) (239 км)
Погода в Сантьяго (Чили) (246 км)
Погода в Талаганте (Чили) (247 км)
Погода на Пасо Лос Либертадорес (Чили) (250 км)
Погода в Пудауэле (Чили) (257 км)

Пояснения к столбцам:

Ветер - указаны скорость ветра в м/с - средняя за 10 мин, порывы в срок и между сроками (в фигурных скобках) и направление, откуда дует ветер: С - северный, СВ - северо-восточный, В - восточный, ЮВ - юго-восточный, Ю - южный, ЮЗ - юго-западный, З - западный, СЗ - северо-западный.
Видимость - горизонтальная дальность видимости в метрах или километрах. При видимости от 1 до 10 км при отсутствии осадков обычно наблюдается дымка, при ухудшении видимости до 1 км и менее - туман. В сухую погоду видимость может ухудшаться дымом, пылью или мглою.
Явления - указаны атмосферные явления, наблюдавшиеся в срок или в последний час перед сроком; фигурными скобками обозначены явления, наблюдавшиеся между сроками (за 1-3 часа до срока); квадратными скобками обозначены град или гололедные отложения с указанием их диаметра в мм.
Облачность - указаны через наклонную черту общая и нижняя облачность в баллах и высота нижней границы облаков в метрах; квадратными скобками обозначены формы облаков: Ci - перистые, Cs - перисто-слоистые, Cc - перисто-кучевые, Ac - высококучевые, As - высокослоистые, Sc - слоисто-кучевые, Ns - слоисто-дождевые, Cu - кучевые, Cb - кучево-дождевые. Подробнее классификацию облаков см. в Атласе облаков (PDF).
T - Температура воздуха - температура, измеренная на высоте 2 м над землей.
Td - Температура точки росы - температура, при понижении до которой содержащийся в воздухе водяной пар достигнет насыщения.
f - Относительная влажность воздуха - влажноcть воздуха, измеренная на высоте 2 м над землей.
Te - Эффективная температура - температура, которую ощущает одетый по сезону человек в тени. Характеристика душности погоды. При расчете учитывается влияние влажности воздуха и скорости ветра на теплоощущения человека.
Tes - Эффективная температура на солнце - температура, которую ощущает человек, с поправкой на солнечный нагрев. Характеристика знойности погоды. Зависит от высоты солнца над горизонтом, облачности и скорости ветра. Ночью, в пасмурную погоду, а также при ветре 12 м/с и более поправка равна нулю.
P - Атмосферное давление - приведенное к уровню моря атмосферное давление.
Po - Атмосферное давление - измеренное на уровне метеостанции атмосферное давление.
Tmin - Минимальная температура - минимум температуры воздуха на высоте 2 м над землей.
Tmax - Максимальная температура - максимум температуры воздуха на высоте 2 м над землей.
R - Количество осадков - Количество выпавших осадков за период времени, мм. При наведении курсора мыши на число - период времени, за который выпало указанное количество осадков.
R24 - Количество осадков - Количество выпавших осадков за 24 часа, мм.
S - Снежный покров - Высота снежного покрова, см. При наведении курсора мыши на число - состояние снежного покрова и степень покрытия местности в баллах.